Location: Newark
(7.1028°S, 35.3258°W)
Time: 18:25:27
(UTC+00:00)

Vanguard 3 - Pass Details

Date: 20 February 2020
Orbit: 508 x 3263 km, 33.4° (Epoch: 02 April)

Event Time Altitude Azimuth Distance (km) Brightness Sun altitude
Rises 23:21:32 0° 279° (W) 7,209 12.7 -38.6°
Reaches altitude 10° 23:27:06 10° 271° (W) 6,193 12.2 -39.9°
Maximum altitude 23:44:20 38° 210° (SSW) 3,745 10.6 -43.9°
Enters shadow 23:55:10 15° 151° (SSE) 4,261 10.7 -46.4°
Drops below altitude 10° 23:56:50 10° 145° (SE) 4,525 - -46.7°
Sets 00:00:13 0° 136° (SE) 5,165 - -47.5°
